This is the latest recevied weather packets stored in our database for station/object SP4LIN-15. If no packets are shown the sender has not sent any weather packets the latest 10 day(s).
| Time | Temp. | Humidity | Pressure | Rain* | Wind** | Luminosity | Snow |
|---|---|---|---|---|---|---|---|
| 1778261936 | 10.56° C | 63% | 1012.4 hPa | 0 mm | - | - | - |
| 1778261036 | 11.11° C | 63% | 1012.2 hPa | 0 mm | - | - | - |
| 1778260136 | 11.11° C | 63% | 1012.4 hPa | 0 mm | - | - | - |
| 1778259236 | 11.11° C | 63% | 1012.4 hPa | 0 mm | - | - | - |
| 1778258336 | 11.11° C | 63% | 1012.3 hPa | 0 mm | - | - | - |
| 1778257436 | 11.11° C | 63% | 1012.3 hPa | 0 mm | - | - | - |
| 1778256536 | 11.11° C | 61% | 1012.3 hPa | 0 mm | - | - | - |
| 1778255636 | 11.67° C | 61% | 1012.1 hPa | 0 mm | - | - | - |
| 1778254736 | 11.67° C | 60% | 1012.1 hPa | 0 mm | - | - | - |
| 1778253836 | 11.67° C | 60% | 1012 hPa | 0 mm | - | - | - |
| 1778252936 | 11.67° C | 59% | 1012 hPa | 0 mm | - | - | - |
| 1778252036 | 12.22° C | 59% | 1011.9 hPa | 0 mm | - | - | - |
| 1778251137 | 12.22° C | 59% | 1011.8 hPa | 0 mm | - | - | - |
| 1778250236 | 12.22° C | 59% | 1012 hPa | 0 mm | - | - | - |
| 1778249337 | 12.78° C | 57% | 1012.1 hPa | 0 mm | - | - | - |
| 1778248436 | 12.78° C | 58% | 1012 hPa | 0 mm | - | - | - |
| 1778247537 | 12.78° C | 58% | 1011.8 hPa | 0 mm | - | - | - |
| 1778246637 | 12.78° C | 59% | 1012 hPa | 0 mm | - | - | - |
| 1778245737 | 12.78° C | 59% | 1012 hPa | 0 mm | - | - | - |
| 1778244837 | 12.78° C | 59% | 1011.9 hPa | 0 mm | - | - | - |
| 1778243937 | 12.78° C | 60% | 1012 hPa | 0 mm | - | - | - |
| 1778243037 | 12.78° C | 60% | 1012 hPa | 0 mm | - | - | - |
| 1778242137 | 12.78° C | 58% | 1012.1 hPa | 0 mm | - | - | - |
| 1778241237 | 13.89° C | 56% | 1012 hPa | 0 mm | - | - | - |
| 1778240337 | 14.44° C | 55% | 1011.7 hPa | 0 mm | - | - | - |
* Rain latest hour (hover to see other rain measurements)
** Current wind speed in m/s (hover to see current wind gust speed)